OIMC  Sarakhs Airport

Add Bookmark

Sarakhs, Iran

Status IATA
Operational CKT
Latitude Longitude
36° 30' 4" N 61° 3' 53" E
36.501202 61.064899
Local (DST + 5) UTC (GMT + 4)
Oct 31, 2014 09:12 Oct 31, 2014 17:42
Sunrise-Sunset Local UTC
Begin Civil Twilight 05:20 01:50
Sunrise 05:46 02:16
Sunset 04:31 13:01
End Civil Twilight 04:58 13:28

Current Weather

METAR Observed VFR
OIMC 311700Z 10006KT CAVOK 12/M05 Q1020 Fri, Oct 31, 2014 @ 17:00 UTC
(42 Minutes ago)
Visual Flight Rules
Wind Visibility Clouds Conditions
100° at 6 knots (11 kph) 10 km or more
  • Clear skies
  • No significant weather
Temperatures Readings Precipitation
Current Temp 12°C (54°F)
Dewpoint -5°C (23°F)
Humidity 30%
Altimeter 30.12"Hg
Sea Level Pressure 1020mb
Field Elevation 944.88'
None Recorded

Additional weather within a 185.2km radius of OIMC

Map ICAO Location
OIMM 130.8km W (257°)
UTAM 144.5km N (030°)

24 Hour Weather History

Loading
-

24 Hour Weather Graphs

Loading
-

CheckWX.com is intended as a tool to help pilots better visualize weather data. It is not intended as a substitute for an official weather briefing obtained from a Flight Service Station. CheckWX.com does not meet the FAA requirements for an official pre-flight weather briefing. Therefore, it's important that pilots still call and obtain an official FSS pre-flight weather briefing.